Rbgn^[z[y[W
メイン
   新天体発見情報
     Comet C/2022 R3 (Leonard)
投稿するにはまず登録を

スレッド表示 | 新しいものから 前のトピック | 次のトピック | 下へ
投稿者 スレッド
佐藤裕久
投稿日時: 2022-10-11 0:33
モデレータ
登録日: 2005-6-12
居住地: 日本
投稿: 2676
オンライン
Comet C/2022 R3 (Leonard)

Gregory J. Leonard (アリゾナ大学)の通報によると、9月15日、Mt Lemmonの1.5-m 反射望遠鏡
で得たCCD画像から彗星を発見した。
4枚の30秒スタック画像では、中程度に集光した6" のコマとp.a. 240°に約10" のまっすぐな
尾が見える。
小惑星センターのPCCP webpageに公表後、K. Wierzchos (アリゾナ大学, 9月18.4日UT, 3枚の
45-s露出, 発見した望遠鏡, 非常に集光した7"のコマと p.a. 240°に18"のまっすぐな尾が
見える)や佐藤英貴氏(東京都文京区,9月22.5日, 120-秒露出8枚のスタック, 43-m f/6.8 アス
トログラフ, Mayhill近郊, ニューメキシコ州, 米国, 遠隔操作: 強く集光した8" が見えるが
尾はない。5".7の円形範囲で測定した光度は18.9等であった)らCCD観測者によって彗星状と
観測された。

彗星機能の報告は次のとおり、

OC   Date        Reporter           Coma    Tail    PA        Exposures
G96  2022-09-18  K. Wierzchos       7"      18"     240         3x45s
204  2022-09-19  A. Aletti          8"      10"     250    
204  2022-09-20  L. Buzzi           6"       9"     225
B49  2022-09-21  J. Camarasa       15"      23"     238 
B96  2022-09-21  E. Bryssinck       7"       9"     247        51x120s
H06  2022-09-22  H. Sato            8"                          8x120s

発見位置は次のとおり、

     2022 UT             R.A. (2000) Decl.       Mag.   Observer
     Sept.15.35780    3 26 59.83   +55 37 59.8   18.9   Leonard
          15.36437    3 26 59.97   +55 38 04.1   19.8     "
          15.36955    3 26 59.98   +55 38 07.1   19.6     "
          15.37622    3 26 59.94   +55 38 11.2   19.6     "
          15.47687    3 26 59.86   +55 39 10.4   19.6     "
          15.48679    3 26 59.88   +55 39 16.6   19.8     "
          15.49686    3 26 59.83   +55 39 21.9            "

MPCの楕円軌道要素、位置推算表は次のとおり、

Orbital elements:
    C/2022 R3 (Leonard)                                                         
Epoch 2022 Aug. 9.0 TT = JDT 2459800.5                                          
T 2023 Feb. 20.72140 TT                                 Rudenko                 
q   5.1476045            (2000.0)            P               Q                  
z  +0.0006474      Peri.   71.37986     +0.21787928     -0.97116801             
 +/-0.0022308      Node     8.14988     +0.41330698     +0.00200574             
e   0.9966674      Incl.   43.03968     +0.88414137     +0.23838766             
From 77 observations 2022 Sept. 15-23, mean residual 0".6.                      
                                                                                
Ephemeris:
Date    TT    R. A. (2000) Decl.     Delta      r    Elong.  Phase   m1
2022 08 27    03 23 22.2 +52 23 05   5.2132  5.3196    90.5    11.0  19.8
...
2022 09 11    03 26 46.5 +54 54 54   5.0039  5.2923   101.2    10.8  19.7
...
2022 09 19    03 26 53.4 +56 13 26   4.8998  5.2786   106.8    10.5  19.7
...
2022 09 25    03 26 05.6 +57 10 19   4.8263  5.2688   110.9    10.2  19.6
2022 09 26    03 25 53.0 +57 19 35   4.8145  5.2672   111.6    10.2  19.6
2022 09 27    03 25 39.0 +57 28 47   4.8028  5.2656   112.3    10.1  19.6
...
2022 10 03    03 23 46.7 +58 22 19   4.7358  5.2563   116.3     9.8  19.6
...
2022 10 11    03 20 00.1 +59 28 24   4.6552  5.2444   121.3     9.4  19.5
...
2022 10 26    03 09 10.6 +61 10 37   4.5350  5.2240   129.5     8.4  19.5

(MPEC 2022-S250、CBET 5172)

スレッド表示 | 新しいものから 前のトピック | 次のトピック | トップ

投稿するにはまず登録を
 
© 1999 Tsutomu Seki.